Location: Sewell
(39.7660°N, 75.1450°W)
Time: 12:45:02
(UTC-04:00)

ISS - Visible Passes

Search period start: 21 July 2017 00:00
Search period end: 31 July 2017 00:00
Orbit: 400 x 408 km, 51.6° (Epoch: 21 July)

Date Brightness Start Highest point End Pass type
(mag) Time Alt. Az. Time Alt. Az. Time Alt. Az.
21 Jul -0.5 00:39:45 12° NNE 00:39:45 12° NNE 00:40:17 10° NNE visible
21 Jul -0.3 02:14:51 10° NNW 02:15:27 10° N 02:16:05 10° N visible
21 Jul -0.7 03:50:44 10° NNW 03:53:00 17° NNE 03:55:15 10° ENE visible
22 Jul -0.3 01:21:50 10° NNW 01:22:49 11° N 01:23:48 10° N visible
22 Jul -0.5 02:58:44 10° NNW 03:00:25 13° NNE 03:02:08 10° NE visible
22 Jul -2.7 04:34:22 10° NW 04:37:33 46° NNE 04:40:42 10° ESE visible
22 Jul -2.5 21:14:16 10° S 21:16:45 20° SE 21:19:14 10° E visible
22 Jul -2.5 22:49:56 10° WSW 22:53:02 41° NNW 22:56:09 10° NE visible
23 Jul -0.4 00:28:37 10° NW 00:30:11 13° NNW 00:31:45 10° NNE visible
23 Jul -0.3 02:06:42 10° NNW 02:07:48 11° N 02:08:54 10° NNE visible
23 Jul -1.6 03:42:15 10° NW 03:45:07 28° NNE 03:48:00 10° E visible
23 Jul -3.2 05:18:37 10° WNW 05:21:38 35° SW 05:24:37 10° SSE visible
23 Jul -3.8 21:57:26 10° SW 22:00:40 77° NW 22:03:55 10° NE visible
23 Jul -0.7 23:35:27 10° WNW 23:37:35 16° NNW 23:39:44 10° NNE visible
24 Jul -0.2 01:14:30 10° N 01:15:08 10° N 01:15:46 10° NNE visible
24 Jul -1.0 02:50:11 10° NNW 02:52:37 19° NNE 02:55:04 10° ENE visible
24 Jul -4.0 04:26:08 10° NW 04:29:24 72° SW 04:32:38 10° SE visible
24 Jul -3.7 21:05:14 10° SW 21:08:23 51° SE 21:11:34 10° ENE visible
24 Jul -1.2 22:42:24 10° W 22:45:02 22° NNW 22:47:41 10° NNE visible
25 Jul -0.2 00:21:40 10° NNW 00:22:28 11° N 00:23:15 10° N visible
25 Jul -0.6 01:58:08 10° NNW 02:00:02 14° NNE 02:01:56 10° NE visible
25 Jul -3.3 03:33:51 10° NW 03:37:04 57° NE 03:40:17 10° ESE visible
25 Jul -2.1 05:11:22 10° W 05:13:12 14° SW 05:15:02 10° SSW visible
25 Jul -2.0 21:49:33 10° W 21:52:33 34° NNW 21:55:34 10° NE visible
25 Jul -0.4 23:28:25 10° NW 23:29:46 12° N 23:31:08 10° NNE visible
26 Jul -0.3 01:06:06 10° NNW 01:06:55 12° N 01:06:55 12° N visible
26 Jul -3.2 20:56:55 10° WSW 21:00:07 61° NW 21:03:21 10° NE visible
26 Jul -0.6 22:35:10 10° NW 22:37:07 15° NNW 22:39:05 10° NNE visible
27 Jul -0.4 00:13:57 10° N 00:14:41 11° N 00:15:26 10° NNE visible
27 Jul -1.0 21:42:02 10° WNW 21:44:30 20° NNW 21:47:00 10° NNE visible
27 Jul -0.4 23:21:20 10° NNW 23:21:58 10° N 23:22:37 10° N visible
28 Jul -1.6 20:49:03 10° W 20:51:57 29° NNW 20:54:51 10° NE visible
28 Jul -0.5 22:28:06 10° NNW 22:29:15 11° N 22:30:24 10° NNE visible
29 Jul -0.5 00:05:21 10° NNW 00:06:27 12° N 00:06:27 12° N visible
29 Jul -0.7 21:34:47 10° NW 21:36:32 14° NNW 21:38:18 10° NNE visible
29 Jul -0.6 23:13:14 10° N 23:14:08 11° N 23:15:03 10° NNE visible
30 Jul -0.5 22:20:48 10° N 22:21:23 10° N 22:21:58 10° N visible
